Regional Weather Roundup
Issued by NWS

Home | Current Version | Previous Version | Graphics & Text | Print | Product List | Glossary On
Versions: 1 2 3 4 5 6 7 8 9 10 11 12 13 14 15 16 17 18 19 20 21 22 23 24 25 26 27 28 29 30 31 32 33 34 35 36 37 38 39 40 41 42 43 44 45 46 47 48 49 50
000
ASUS45 KBOI 060010
RWRID
WEATHER ROUNDUP FOR IDAHO
NATIONAL WEATHER SERVICE BOISE ID
600 PM MDT TUE MAY 05 2015

NOTE: "FAIR" INDICATES FEW OR NO CLOUDS BELOW 12000 FEET
WITH NO SIGNIFICANT WEATHER AND/OR OBSTRUCTIONS TO VISIBILITY

IDZ012-014-060100-
SOUTHWEST IDAHO


CITY           SKY/WX    TMP DP  RH WIND       PRES   REMARKS
BOISE          SUNNY     70  21  15 NW18G26   29.78F
CALDWELL       SUNNY     70  27  19 NW16G22   29.80F
$$

IDZ016-017-060100-
SOUTHCENTRAL IDAHO


CITY           SKY/WX    TMP DP  RH WIND       PRES   REMARKS
BURLEY         PTSUNNY   65  27  23 W17G23    29.75S
JEROME         PTSUNNY   69  21  16 W23G30    29.77S
TWIN FALLS     MOSUNNY   70  22  16 W23       29.78S
$$

IDZ019>023-060100-
SOUTHEAST IDAHO


CITY           SKY/WX    TMP DP  RH WIND       PRES   REMARKS
IDAHO FALLS    LGT RAIN  59  46  62 N18G29    29.77R
POCATELLO      MOSUNNY   71  35  26 W22       29.73F
REXBURG        LGT RAIN  60  40  47 NW8       29.78R
$$

IDZ006-010-011-018-031-032-060100-
CENTRAL IDAHO MOUNTAINS


CITY           SKY/WX    TMP DP  RH WIND       PRES   REMARKS
MCCALL         SUNNY     57  27  31 VRB7      29.84F
HAILEY         PTSUNNY   66  39  37 CALM      29.75F
STANLEY        NOT AVBL
SALMON           N/A     64  43  45 N9        29.72S
CHALLIS        MOSUNNY   71  31  22 VRB6      29.71F
$$

IDZ002-004-006-007-026-060100-
NORTHERN IDAHO


CITY           SKY/WX    TMP DP  RH WIND       PRES   REMARKS
LEWISTON       SUNNY     64  25  22 NW17G24   29.91F
LOWELL           N/A     71  34  25 CALM      29.88F
COEUR D`ALENE  MOSUNNY   57  25  28 S17       29.92F
MULLAN PASS    CLOUDY    43  23  45 NW5       29.92S
$$



USA.gov is the U.S. government's official web portal to all federal, state and local government web resources and services.